Flag for Germany Weather past 2 weeks in Hanau, Hesse, Germany

Now
55 °F

Light rain. Fog.


Feels Like: 55 °F
Forecast: 39 / 55 °F
Wind: 2 mph from North

Location: Frankfurt-M-Flughafen Airport

Current Time: Apr 27, 2015 at 6:09:40 AM

Latest Report: Apr 27, 2015 at 5:20 AM


Visibility: 3 mi

Pressure: 29.56 "Hg

Humidity: 94%

Dew point: 54 °F

Location of HanauLocation

Historic Weather in Hanau — Graph

°F

Hanau temperature yesterday

Maximum temperature yesterday: 72 °F (at 4:50 PM)
Minimum temperature yesterday: 50 °F (at 2:20 AM)
Average temperature yesterday: 61 °F

Past Weeks' High & Low Weather Summary

 TemperatureHumidityPressure
High77 °F (Apr 15, 3:50 PM)100% (Apr 23, 5:50 AM)30.45 "Hg (Apr 23, 5:50 AM)
Low34 °F (Apr 23, 5:50 AM)20% (Apr 19, 5:20 PM)29.56 "Hg (Apr 27, 3:50 AM)
Average55 °F56%30.12 "Hg
* Reported Apr 12 4:20 AM — Apr 27 4:50 AM, Hanau, Weather by CustomWeather, © 2015

Note: Actual official high and low records may vary slightly from our data, if they occured in-between our weather recording intervals... More about our weather records

Advertising

Hanau weather history for previous 24 hours

 ConditionsComfort  
Time TempWeatherWind HumidityBarometerVisibility
4:50 AM
Mon, Apr 27
55 °FSprinkles. Partly cloudy.2 mph94%29.56 "Hg3 mi
4:20 AM55 °FPartly cloudy.3 mph94%29.56 "HgN/A
3:50 AM55 °FPassing clouds.3 mph94%29.56 "HgN/A
3:20 AM55 °FPassing clouds.No wind94%29.59 "HgN/A
2:50 AM57 °FPartly cloudy.6 mph94%29.59 "HgN/A
2:20 AM55 °FPartly cloudy.2 mph100%29.59 "HgN/A
1:50 AM57 °FPartly cloudy.6 mph94%29.59 "HgN/A
1:20 AM57 °FPartly cloudy.7 mph94%29.59 "HgN/A
12:50 AM57 °FSprinkles. Passing clouds.6 mph94%29.59 "HgN/A
12:20 AM57 °FFog.2 mph94%29.62 "HgN/A
11:50 PM
Sun, Apr 26
57 °FPartly cloudy.No wind94%29.62 "HgN/A
11:20 PM59 °FRain showers. Passing clouds.8 mph82%29.65 "Hg3 mi
10:50 PM61 °FPassing clouds.5 mph72%29.62 "HgN/A
10:20 PM63 °FPartly cloudy.8 mph68%29.62 "HgN/A
9:50 PM63 °FClear.8 mph68%29.62 "Hg10 mi
9:20 PM64 °FSunny.7 mph64%29.62 "Hg10 mi
8:50 PM64 °FScattered showers. Broken clouds.8 mph64%29.62 "HgN/A
8:20 PM66 °FScattered showers. Broken clouds.8 mph60%29.62 "HgN/A
7:50 PM66 °FSunny.8 mph56%29.65 "Hg10 mi
7:20 PM68 °FSunny.8 mph56%29.65 "Hg10 mi
6:50 PM68 °FSunny.8 mph53%29.65 "Hg10 mi
6:20 PM70 °FPassing clouds.6 mph40%29.65 "HgN/A
5:50 PM70 °FPassing clouds.6 mph40%29.65 "HgN/A
5:20 PM70 °FPassing clouds.9 mph43%29.68 "HgN/A
4:50 PM72 °FPassing clouds.10 mph41%29.68 "HgN/A
4:20 PM70 °FBroken clouds.10 mph43%29.68 "HgN/A
3:50 PM70 °FPartly sunny.12 mph43%29.71 "HgN/A
3:20 PM68 °FBroken clouds.14 mph43%29.71 "HgN/A
2:50 PM68 °FBroken clouds.13 mph49%29.71 "HgN/A
2:20 PM70 °FScattered showers. Broken clouds.10 mph43%29.74 "HgN/A
1:50 PM66 °FThundershowers. Broken clouds.12 mph56%29.74 "HgN/A
1:20 PM66 °FThunderstorms. Broken clouds.12 mph60%29.74 "HgN/A
12:50 PM64 °FScattered showers. Partly sunny.12 mph64%29.74 "HgN/A
12:20 PM64 °FScattered clouds.13 mph60%29.77 "HgN/A
11:50 AM63 °FScattered clouds.13 mph64%29.77 "HgN/A
11:20 AM64 °FPartly sunny.13 mph64%29.77 "HgN/A
10:50 AM63 °FPartly sunny.12 mph73%29.77 "HgN/A
10:20 AM61 °FPartly sunny.10 mph72%29.80 "HgN/A
9:50 AM61 °FBroken clouds.10 mph77%29.80 "HgN/A
9:20 AM59 °FBroken clouds.10 mph82%29.80 "HgN/A
8:50 AM57 °FBroken clouds.9 mph88%29.80 "HgN/A
8:20 AM55 °FBroken clouds.7 mph94%29.80 "HgN/A
7:50 AM55 °FBroken clouds.7 mph94%29.80 "Hg4 mi
7:20 AM54 °FBroken clouds.7 mph100%29.80 "Hg6 mi
6:50 AM54 °FPartly cloudy.7 mph100%29.80 "Hg4 mi
6:20 AM54 °FFog.7 mph100%29.80 "Hg3 mi
Weather by CustomWeather, © 2015

See weather overviewHow to use our weather pages